Location: Boullarre
(49.1305°N, 3.0047°E)
Time: 08:35:56
(UTC+00:00)

BlueWalker 3 - Visible Passes

Search period start: 08 June 2023 00:00
Search period end: 18 June 2023 00:00
Orbit: 494 x 513 km, 53.2° (Epoch: 07 June)

Date Brightness Start Highest point End Pass type
(mag) Time Alt. Az. Time Alt. Az. Time Alt. Az.
08 Jun 2.4 21:20:06 10° WNW 21:23:55 60° NNE 21:27:46 10° E visible
08 Jun 2.4 22:58:44 10° WNW 23:02:24 42° SW 23:02:54 39° SSW visible
09 Jun 2.4 20:59:39 10° WNW 21:03:29 60° NNE 21:07:18 10° E visible
09 Jun 2.5 22:38:17 10° WNW 22:41:56 41° SW 22:42:47 35° S visible
10 Jun 2.4 20:39:11 10° WNW 20:43:01 61° NNE 20:46:51 10° E visible
10 Jun 2.5 22:17:50 10° WNW 22:21:28 40° SW 22:22:42 30° S visible
11 Jun 2.6 21:57:21 10° WNW 22:00:59 39° SW 22:02:39 25° SSE visible
12 Jun 2.7 21:36:53 10° WNW 21:40:29 38° SW 21:42:39 20° SSE visible
13 Jun 2.7 21:16:24 10° WNW 21:19:59 37° SW 21:22:41 16° SSE visible
14 Jun 2.8 20:55:54 10° WNW 20:59:28 37° SW 21:02:46 12° SSE visible
15 Jun 2.9 20:35:23 10° WNW 20:38:56 36° SW 20:42:30 10° SSE visible
